| time (UTC) | temp F | wind direction | speed knots | gust knots | rain 1hr in | rain 24hr in | rain mn in | humidity % | barometer mb |
| 20260508114730 | 58 | 345 | 7.0 | 14.8 | 0.00 | 0.00 | 0.00 | 19 | 1026.2 |
| 20260508112730 | 58 | 311 | 6.1 | 14.8 | 0.00 | 0.00 | 0.00 | 21 | 1026.2 |
| 20260508110730 | 58 | 334 | 8.7 | 16.5 | 0.00 | 0.00 | 0.00 | 21 | 1026.3 |
| 20260508104730 | 57 | 342 | 6.1 | 13.9 | 0.00 | 0.00 | 0.00 | 22 | 1026.4 |
| 20260508102729 | 56 | 335 | 5.2 | 11.3 | 0.00 | 0.00 | 0.00 | 23 | 1026.3 |
| 20260508100729 | 56 | 3 | 7.8 | 15.6 | 0.00 | 0.00 | 0.00 | 25 | 1026.2 |
| 20260508094729 | 55 | 355 | 7.8 | 14.8 | 0.00 | 0.00 | 0.00 | 27 | 1026.1 |
| 20260508092729 | 56 | 350 | 7.8 | 16.5 | 0.00 | 0.00 | 0.00 | 28 | 1026.1 |
| 20260508090729 | 55 | 318 | 7.8 | 16.5 | 0.00 | 0.00 | 0.00 | 29 | 1026.2 |
| 20260508084729 | 55 | 329 | 7.8 | 17.4 | 0.00 | 0.00 | 0.00 | 30 | 1026.3 |
| 20260508082729 | 54 | 344 | 7.8 | 16.5 | 0.00 | 0.00 | 0.00 | 31 | 1026.3 |
| 20260508080730 | 53 | 346 | 7.8 | 16.5 | 0.00 | 0.00 | 0.00 | 33 | 1026.3 |
| 20260508074729 | 52 | 350 | 7.0 | 17.4 | 0.00 | 0.00 | 0.00 | 33 | 1026.1 |
| 20260508072729 | 51 | 345 | 7.8 | 14.8 | 0.00 | 0.00 | 0.00 | 34 | 1026.0 |
| 20260508070730 | 51 | 326 | 7.0 | 13.0 | 0.00 | 0.00 | 0.00 | 36 | 1025.9 |
| 20260508064729 | 50 | 339 | 7.8 | 13.9 | 0.00 | 0.00 | 0.00 | 38 | 1025.7 |
| 20260508062729 | 49 | 344 | 8.7 | 18.2 | 0.00 | 0.00 | 0.00 | 39 | 1025.5 |
| 20260508060729 | 48 | 333 | 8.7 | 14.8 | 0.00 | 0.00 | 0.00 | 42 | 1025.3 |
| 20260508054729 | 47 | 336 | 7.8 | 13.9 | 0.00 | 0.00 | 0.00 | 47 | 1025.2 |
| 20260508052730 | 46 | 335 | 7.8 | 14.8 | 0.00 | 0.00 | 0.00 | 49 | 1025.0 |
| 20260508050729 | 44 | 339 | 7.8 | 14.8 | 0.00 | 0.00 | 0.00 | 53 | 1024.8 |
| 20260508044729 | 43 | 339 | 5.2 | 11.3 | 0.00 | 0.00 | 0.00 | 54 | 1024.6 |
| 20260508042729 | 42 | 335 | 5.2 | 9.6 | 0.00 | 0.00 | 0.00 | 58 | 1024.5 |
| 20260508040729 | 39 | 336 | 5.2 | 10.4 | 0.00 | 0.00 | 0.00 | 62 | 1024.2 |
| 20260508034729 | 38 | 336 | 5.2 | 10.4 | 0.00 | 0.00 | 0.00 | 64 | 1024.1 |
| 20260508032729 | 36 | 331 | 7.0 | 10.4 | 0.00 | 0.00 | 0.00 | 67 | 1023.9 |
| 20260508030728 | 35 | 326 | 6.1 | 10.4 | 0.00 | 0.00 | 0.00 | 69 | 1023.7 |
| 20260508024728 | 35 | 330 | 6.1 | 10.4 | 0.00 | 0.00 | 0.00 | 68 | 1023.5 |
| 20260508022728 | 35 | 331 | 7.0 | 11.3 | 0.00 | 0.00 | 0.00 | 68 | 1023.2 |
| 20260508020728 | 34 | 327 | 7.0 | 9.6 | 0.00 | 0.00 | 0.00 | 68 | 1023.0 |
| 20260508014728 | 34 | 326 | 5.2 | 9.6 | 0.00 | 0.00 | 0.00 | 69 | 1022.9 |
| 20260508010728 | 35 | 322 | 4.3 | 7.0 | 0.00 | 0.00 | 0.00 | 65 | 1022.4 |
| 20260508004728 | 36 | 330 | 4.3 | 7.8 | 0.00 | 0.00 | 0.00 | 62 | 1022.1 |
| 20260508002728 | 38 | 327 | 5.2 | 10.4 | 0.00 | 0.00 | 0.00 | 60 | 1021.8 |
| 20260508000728 | 38 | 323 | 6.1 | 11.3 | 0.00 | 0.00 | 0.00 | 60 | 1021.6 |
| 20260507234728 | 38 | 320 | 6.1 | 9.6 | 0.00 | 0.00 | 0.00 | 59 | 1021.3 |
| 20260507232728 | 38 | 316 | 6.1 | 9.6 | 0.00 | 0.00 | 0.00 | 59 | 1021.2 |
| 20260507230728 | 39 | 314 | 6.1 | 10.4 | 0.00 | 0.00 | 0.00 | 57 | 1020.8 |
| 20260507224727 | 40 | 311 | 6.1 | 10.4 | 0.00 | 0.00 | 0.00 | 55 | 1020.5 |
| 20260507222728 | 40 | 309 | 6.1 | 10.4 | 0.00 | 0.00 | 0.00 | 53 | 1020.3 |
| 20260507220727 | 41 | 310 | 6.1 | 11.3 | 0.00 | 0.00 | 0.00 | 51 | 1020.1 |
| 20260507214727 | 41 | 305 | 6.1 | 12.2 | 0.00 | 0.00 | 0.00 | 50 | 1019.9 |
| 20260507212727 | 42 | 306 | 7.0 | 10.4 | 0.00 | 0.00 | 0.00 | 49 | 1019.6 |
| 20260507210727 | 42 | 300 | 7.0 | 12.2 | 0.00 | 0.00 | 0.00 | 49 | 1019.3 |
| 20260507204727 | 41 | 305 | 6.1 | 9.6 | 0.00 | 0.00 | 0.00 | 48 | 1019.1 |
| 20260507202727 | 42 | 313 | 6.1 | 9.6 | 0.00 | 0.00 | 0.00 | 44 | 1018.8 |
| 20260507200728 | 42 | 307 | 6.1 | 10.4 | 0.00 | 0.00 | 0.00 | 45 | 1018.6 |
| 20260507194727 | 42 | 319 | 5.2 | 9.6 | 0.00 | 0.00 | 0.00 | 40 | 1018.2 |
| 20260507192727 | 42 | 303 | 5.2 | 7.0 | 0.00 | 0.00 | 0.00 | 40 | 1017.8 |
| 20260507190726 | 42 | 269 | 3.5 | 6.1 | 0.00 | 0.00 | 0.00 | 40 | 1017.7 |
| 20260507184727 | 44 | 230 | 2.6 | 5.2 | 0.00 | 0.00 | 0.00 | 38 | 1017.3 |
| 20260507182726 | 45 | 210 | 3.5 | 7.0 | 0.00 | 0.00 | 0.00 | 38 | 1017.2 |
| 20260507180726 | 46 | 199 | 5.2 | 9.6 | 0.00 | 0.00 | 0.00 | 41 | 1016.9 |
| 20260507174726 | 47 | 189 | 5.2 | 11.3 | 0.00 | 0.00 | 0.00 | 38 | 1016.8 |
| 20260507172726 | 48 | 186 | 4.3 | 8.7 | 0.00 | 0.00 | 0.00 | 36 | 1016.7 |
| 20260507170726 | 49 | 194 | 6.1 | 12.2 | 0.00 | 0.00 | 0.00 | 35 | 1016.5 |
| 20260507164727 | 50 | 195 | 5.2 | 11.3 | 0.00 | 0.00 | 0.00 | 34 | 1016.4 |
| 20260507162726 | 51 | 152 | 7.8 | 12.2 | 0.00 | 0.00 | 0.00 | 34 | 1016.2 |
| 20260507160726 | 51 | 141 | 7.8 | 15.6 | 0.00 | 0.00 | 0.00 | 31 | 1016.1 |
| 20260507154726 | 52 | 143 | 7.8 | 13.0 | 0.00 | 0.00 | 0.00 | 28 | 1015.9 |
| 20260507152725 | 53 | 153 | 7.0 | 14.8 | 0.00 | 0.00 | 0.00 | 29 | 1015.8 |
| 20260507150727 | 54 | 164 | 5.2 | 10.4 | 0.00 | 0.00 | 0.00 | 26 | 1015.7 |
| 20260507144727 | 55 | 152 | 4.3 | 8.7 | 0.00 | 0.00 | 0.00 | 26 | 1015.6 |
| 20260507142726 | 55 | 158 | 6.1 | 11.3 | 0.00 | 0.00 | 0.00 | 25 | 1015.6 |
| 20260507140726 | 55 | 154 | 5.2 | 10.4 | 0.00 | 0.00 | 0.00 | 25 | 1015.4 |
| 20260507134726 | 55 | 149 | 6.1 | 13.0 | 0.00 | 0.00 | 0.00 | 24 | 1015.4 |
| 20260507132725 | 57 | 151 | 6.1 | 9.6 | 0.00 | 0.00 | 0.00 | 25 | 1015.4 |
| 20260507130726 | 58 | 198 | 6.1 | 12.2 | 0.00 | 0.00 | 0.00 | 26 | 1015.4 |
| 20260507124725 | 58 | 158 | 4.3 | 9.6 | 0.00 | 0.00 | 0.00 | 24 | 1015.2 |
| 20260507122725 | 59 | 139 | 6.1 | 12.2 | 0.00 | 0.00 | 0.00 | 24 | 1015.2 |
| 20260507120726 | 59 | 142 | 5.2 | 11.3 | 0.00 | 0.00 | 0.00 | 23 | 1015.1 |